Tracking 30970 objects as of 3-Jul-2025
HD Live streaming from Space Station
objects crossing your sky now

COSMOS 874

Track COSMOS 874 now!
10-day predictions
COSMOS 874 is classified as:


NORAD ID: 9591
Int'l Code: 1976-118D
Perigee: 1,470.9 km
Apogee: 1,522.8 km
Inclination: 74.0 °
Period: 115.8 minutes
Semi major axis: 7867 km
RCS: 0.6831 m2 (medium)
Launch date: December 7, 1976
Source: Commonwealth of Independent States (former USSR) (CIS)
Launch site: PLESETSK MISSILE AND SPACE COMPLEX (PKMTR)
Your satellite tracking list
Your tracking list is empty




NASA's NSSDC Master Catalog

Two Line Element Set (TLE):
1 09591U 76118D   25183.82970889  .00000001  00000-0  12004-3 0  9998
2 09591  74.0325 336.0780 0033033 192.1315 278.0542 12.43997146205559
Source of the keplerian elements: AFSPC